COSMOS 1275 DEB, 14556

Orbit data source: Space-Track

COSMOS 1275 DEB, 14556 is space debris in LEO originally from a launch on Thu, 04 Jun 1981 UTC launched from the Plesetsk Missile And Space Complex (PKMTR). Debris objects in space refer to the collection of defunct objects orbiting the Earth. Examples of debris include non-operational satellites, rocket bodies, and fragments generated from explosions, collisions, or faulty payload assembly.

Loading next visibility...
Identifier
14556, 1981-053JL
Orbit
LEO
Country
Flag of CISCIS
Related business
Manufacturer
Unknown
Mission
Spacecraft
Bus & Motor
Unknown
Mass
Unknown
Launch date (UTC)
1981-06-04 (44 years ago)
Launch vehicle
Unknown
Launch site
Plesetsk Missile And Space Complex (PKMTR)
Object type
Payload
Rocket body
Debris
Shape & HBR
Unknown shape, 0.1 m
Radar Cross Section
Small (<0.1 m²)

Expand to show TLE details & history
Last TLE update: 14 hours ago

TLE from 14 hours ago
0 COSMOS 1275 DEB
1 14556U 81053JL  25287.88763167  .00001089  00000-0  11501-2 0  9996
2 14556  83.0149 156.3499 0127366 276.0824  99.2434 13.70391538 78500
Epoch: 2025-10-14T21:18Z
TLE epoch observation values (Epoch: 2025-10-14T21:18:11.376Z)
Latitude
16.61863°
Longitude
175.21773°
Altitude
1,016.685 km
Speed
7.337 km/s
True Right ascension
10h 33m 44s
True Declination
16° 31' 41"
Sunlit
Object was in daylight at epoch
Visualization orbit readout
Latitude
Unknown
Longitude
Unknown
Altitude
Unknown
Speed
Unknown
Apparent Right ascension
Unknown
Apparent Declination
Unknown
Sunlit
N/A
Visualization observer readout
Local Sidereal Time
05:49:06
Azimuth
Unknown
Elevation
Unknown
Doppler factor
Unknown
Orbital elements
Apogee altitude
1,089.23 km
Perigee altitude
901.405 km
Semi-major axis
7,373.454 km
Eccentricity
0.01274
Inclination
83.0149°
RAAN
156.3499°
Arg. of periapsis
276.0824°
True anomaly
100.68013°
Mean anomaly
99.2434°
Eccentric anomaly
99.96215°
Mean motion
3.42797 °/min
Orbital period
105.02 mins
BSTAR
0.0011501
Loading maneuver chart data...
Computing Atmospheric mass density...

Documentation

Showing up to 5 results
|